This is the latest recevied weather packets stored in our database for station/object EA5JMY-10. If no packets are shown the sender has not sent any weather packets the latest 10 day(s).
| Time | Temp. | Humidity | Pressure | Rain* | Wind** | Luminosity | Snow |
|---|---|---|---|---|---|---|---|
| 1777254603 | 15° C | 73% | 1021.1 hPa | - | - | - | - |
| 1777253703 | 14.44° C | 75% | 1021.2 hPa | - | - | - | - |
| 1777252803 | 15° C | 74% | 1021.3 hPa | - | - | - | - |
| 1777251903 | 14.44° C | 75% | 1021.5 hPa | - | - | - | - |
| 1777251003 | 14.44° C | 75% | 1021.6 hPa | - | - | - | - |
| 1777250103 | 14.44° C | 75% | 1021.6 hPa | - | - | - | - |
| 1777249202 | 14.44° C | 75% | 1021.7 hPa | - | - | - | - |
| 1777248302 | 14.44° C | 74% | 1021.9 hPa | - | - | - | - |
| 1777247402 | 14.44° C | 75% | 1021.8 hPa | - | - | - | - |
| 1777246502 | 15° C | 76% | 1021.8 hPa | - | - | - | - |
| 1777245602 | 14.44° C | 75% | 1021.7 hPa | - | - | - | - |
| 1777244702 | 14.44° C | 75% | 1021.8 hPa | - | - | - | - |
| 1777243802 | 14.44° C | 73% | 1021.8 hPa | - | - | - | - |
| 1777242902 | 15° C | 72% | 1021.9 hPa | - | - | - | - |
| 1777242002 | 15.56° C | 72% | 1021.8 hPa | - | - | - | - |
| 1777241101 | 15.56° C | 71% | 1022 hPa | - | - | - | - |
| 1777240201 | 16.11° C | 72% | 1021.9 hPa | - | - | - | - |
| 1777239301 | 16.11° C | 71% | 1021.9 hPa | - | - | - | - |
| 1777238401 | 16.11° C | 71% | 1021.8 hPa | - | - | - | - |
| 1777237501 | 16.11° C | 70% | 1021.7 hPa | - | - | - | - |
| 1777236601 | 16.67° C | 69% | 1021.6 hPa | - | - | - | - |
| 1777235701 | 16.67° C | 68% | 1021.5 hPa | - | - | - | - |
| 1777234801 | 16.67° C | 68% | 1021.4 hPa | - | - | - | - |
| 1777233900 | 17.22° C | 67% | 1021.3 hPa | - | - | - | - |
| 1777233000 | 17.22° C | 65% | 1021.1 hPa | - | - | - | - |
* Rain since midnight (hover to see other rain measurements)
** Current wind speed in m/s (hover to see current wind gust speed)